Tracking 28794 objects as of 19-Apr-2024
HD Live streaming from Space Station
objects crossing your sky now

COSMOS 2251 DEB

Track COSMOS 2251 DEB now!
10-day predictions


NORAD ID: 34991
Int'l Code: 1993-036AFP
Perigee: 553.3 km
Apogee: 573.8 km
Inclination: 74.0 °
Period: 95.8 minutes
Semi major axis: 6934 km
RCS: 0.013 m2 (small)
Launch date: June 16, 1993
Source: Commonwealth of Independent States (former USSR) (CIS)
Launch site: PLESETSK MISSILE AND SPACE COMPLEX (PKMTR)

Note: This is SATELLITE DEBRIS
Your satellite tracking list
Your tracking list is empty




NASA's NSSDC Master Catalog

Two Line Element Set (TLE):
1 34991U 93036AFP 24105.09143386  .00076906  00000-0  55834-2 0  9998
2 34991  74.0258 343.7946 0014753 181.8969 178.2167 15.03395085796106
Source of the keplerian elements: AFSPC